Lake Hartwell Weather Center

Moon Phase Calendar



Lake Hartwell Water Level
Online Cameras

 


      

Current Conditions in Centerville
9/25/2022 4:52:44 AM

59°F
Feels Like 58
Clear
Humidity
88%
Pressure
30"
Wind
5.8 mph (W)
Dew Point
55°F
UV Index
0/10 (Low)
Visibility
6 mi

Hourly Forecast

Date & Time Sun, Sep 25
4:00 AM
Sun, Sep 25
5:00 AM
Sun, Sep 25
6:00 AM
Sun, Sep 25
7:00 AM
Sun, Sep 25
8:00 AM
Sun, Sep 25
9:00 AM
Sun, Sep 25
10:00 AM
Sun, Sep 25
11:00 AM
Sun, Sep 25
12:00 PM
Sun, Sep 25
1:00 PM
Sun, Sep 25
2:00 PM
Sun, Sep 25
3:00 PM
Sun, Sep 25
4:00 PM
Sun, Sep 25
5:00 PM
Sun, Sep 25
6:00 PM
Sun, Sep 25
7:00 PM
Sun, Sep 25
8:00 PM
Sun, Sep 25
9:00 PM
Sun, Sep 25
10:00 PM
Sun, Sep 25
11:00 PM
Mon, Sep 26
12:00 AM
Mon, Sep 26
1:00 AM
Mon, Sep 26
2:00 AM
Mon, Sep 26
3:00 AM
Mon, Sep 26
4:00 AM
Mon, Sep 26
5:00 AM
Mon, Sep 26
6:00 AM
Mon, Sep 26
7:00 AM
Mon, Sep 26
8:00 AM
Mon, Sep 26
9:00 AM
Mon, Sep 26
10:00 AM
Mon, Sep 26
11:00 AM
Mon, Sep 26
12:00 PM
Mon, Sep 26
1:00 PM
Mon, Sep 26
2:00 PM
Mon, Sep 26
3:00 PM
Mon, Sep 26
4:00 PM
Mon, Sep 26
5:00 PM
Mon, Sep 26
6:00 PM
Mon, Sep 26
7:00 PM
Mon, Sep 26
8:00 PM
Mon, Sep 26
9:00 PM
Mon, Sep 26
10:00 PM
Mon, Sep 26
11:00 PM
Tue, Sep 27
12:00 AM
Tue, Sep 27
1:00 AM
Tue, Sep 27
2:00 AM
Tue, Sep 27
3:00 AM
Condition
Clouds

Clear

Clouds

Clouds

Clouds

Clouds

Clouds

Clouds

Clouds

Rain

Rain

Clouds

Clouds

Clouds

Clouds

Rain

Rain

Rain

Clouds

Clouds

Clouds

Clouds

Clouds

Clear

Clear

Clouds

Clouds

Clouds

Clouds

Clear

Clear

Clear

Clear

Clear

Clear

Clear

Clear

Clear

Clear

Clear

Clear

Clear

Clear

Clear

Clear

Clear

Clear

Clear
Temperature 59°F59°F59°F60°F61°F64°F66°F66°F66°F66°F65°F72°F79°F76°F76°F73°F69°F65°F64°F64°F64°F63°F62°F62°F60°F60°F59°F59°F60°F64°F69°F75°F80°F82°F83°F83°F83°F81°F78°F72°F66°F63°F61°F59°F58°F57°F55°F54°F
Feels Like 58°F58°F58°F59°F60°F62°F65°F65°F65°F66°F65°F72°F79°F77°F76°F73°F69°F66°F65°F65°F64°F64°F63°F62°F61°F60°F59°F59°F60°F64°F69°F74°F79°F80°F80°F81°F80°F80°F77°F71°F65°F61°F59°F57°F56°F55°F53°F52°F
Cloudiness 19%0%18%36%55%80%100%100%100%100%100%98%94%95%75%69%59%5%46%46%35%28%24%5%3%25%22%18%16%0%0%0%0%0%0%0%0%0%0%0%0%0%0%0%0%0%0%0%
Visibility 6 mi6 mi6 mi6 mi6 mi6 mi6 mi6 mi6 mi6 mi6 mi6 mi6 mi6 mi6 mi6 mi6 mi6 mi6 mi6 mi6 mi6 mi6 mi6 mi6 mi6 mi6 mi6 mi6 mi6 mi6 mi6 mi6 mi6 mi6 mi6 mi6 mi6 mi6 mi6 mi6 mi6 mi6 mi6 mi6 mi6 mi6 mi6 mi
Precipitation 0%0%0%0%0%0%0%0%0%30%23%55%44%36%32%45%55%48%48%30%20%14%13%0%0%0%0%0%0%0%0%0%0%0%0%0%0%0%0%0%0%0%0%0%0%0%0%0%
Humidity 81%88%81%74%66%59%51%57%58%68%80%69%56%60%60%65%77%91%95%96%95%94%94%93%93%93%93%93%92%83%69%44%27%22%22%22%22%23%29%37%43%48%54%57%58%60%62%61%
Dew Point 53°F55°F53°F51°F50°F49°F48°F50°F51°F55°F58°F61°F61°F61°F61°F61°F61°F62°F63°F63°F62°F62°F61°F59°F58°F58°F57°F57°F57°F59°F58°F52°F43°F40°F40°F40°F40°F41°F44°F44°F43°F43°F44°F44°F44°F43°F43°F41°F
Pressure 30"30"30"29.97"29.97"29.94"29.94"29.94"29.94"29.94"29.91"29.88"29.85"29.83"29.83"29.83"29.85"29.85"29.85"29.88"29.85"29.85"29.85"29.85"29.88"29.88"29.88"29.91"29.91"29.91"29.91"29.91"29.91"29.88"29.88"29.85"29.85"29.85"29.85"29.88"29.91"29.94"29.97"29.97"29.97"29.97"29.97"29.97"
Wind Speed 6.4 mph6.6 mph6.9 mph7 mph6.9 mph5.3 mph7.8 mph6.5 mph9.1 mph11.7 mph11.6 mph12.1 mph14 mph13.4 mph13.3 mph11.9 mph10.4 mph7.6 mph6.1 mph5.8 mph5.3 mph4.6 mph4.3 mph4.2 mph2.7 mph2.3 mph2 mph2.8 mph2.8 mph2.4 mph4.8 mph7.2 mph10.3 mph13.2 mph13.1 mph12.6 mph12.5 mph12.8 mph11.6 mph8.4 mph7.4 mph7 mph6.5 mph5.6 mph5.5 mph5.8 mph5.6 mph5.6 mph
Wind
Direction
240°
WSW
240°
WSW
235°
SW
232°
SW
240°
WSW
205°
SSW
230°
SW
226°
SW
228°
SW
234°
SW
225°
SW
230°
SW
234°
SW
225°
SW
237°
WSW
238°
WSW
245°
WSW
249°
WSW
242°
WSW
251°
WSW
269°
W
287°
WNW
295°
WNW
313°
NW
321°
NW

N

N
346°
NNW
338°
NNW
291°
WNW
291°
WNW
293°
WNW
291°
WNW
290°
WNW
289°
WNW
287°
WNW
295°
WNW
303°
WNW
306°
NW
302°
WNW
307°
NW
322°
NW
326°
NW
330°
NNW
319°
NW
310°
NW
317°
NW
325°
NW

Daily Forecast

Date High Low Precip. Humidity
Today
Sep 25

Rain
79 °F
59 °F
55%
68%
Monday
Sep 26

Clear
83 °F
59 °F
20%
22%
Tuesday
Sep 27

Clear
79 °F
50 °F
0%
21%
Wednesday
Sep 28

Clouds
76 °F
54 °F
0%
25%
Thursday
Sep 29

Clouds
65 °F
55 °F
3%
39%
Friday
Sep 30

Rain
56 °F
51 °F
100%
88%
Saturday
Oct 1

Rain
60 °F
55 °F
100%
97%
Sunday
Oct 2

Rain
74 °F
60 °F
86%
82%
Monday
Oct 3

Clear
83 °F
63 °F
0%
52%
Tuesday
Oct 4

Clear
84 °F
62 °F
0%
38%
Wednesday
Oct 5

Clear
77 °F
54 °F
0%
39%
Thursday
Oct 6

Clear
76 °F
53 °F
0%
38%
Friday
Oct 7

Clear
77 °F
53 °F
0%
36%
Saturday
Oct 8

Clear
79 °F
55 °F
0%
37%
Sunday
Oct 9

Clear
81 °F
58 °F
0%
39%
Monday
Oct 10

Clear
76 °F
52 °F
0%
33%

Temperature 8-14 Day Outlook



Precipitation 8-14 Day Outlook






About Us
Contact Us
Site Map
Search Site
Advertise With Us
   
www.MyLakeHartwell.com
THE LAKE HARTWELL WEBSITE

Copyright 2022, Lakes Online
Privacy    |    Legal